iso_date,Year,Hour,Min,DOY,POS_DOY,Lat,Lon,BP,Ts,Ta,has_bp,has_ts,has_ta,BuoyID,Buoy_Type,Buoy_Owner,Logistics,Hemisphere
2022-04-06T00:00:00Z,2022,0,0,96.0,96.0,71.95867,-156.2446,1005.0,-16.63,-999.0,yes,yes,no,300534061806080,IP,USIABP,UTQ_2022,North
2022-04-06T01:00:02Z,2022,1,0,96.0417,96.0417,71.95865,-156.2523,1005.6,-17.63,-999.0,yes,yes,no,300534061806080,IP,USIABP,UTQ_2022,North
2022-04-06T06:00:00Z,2022,6,0,96.25,96.25,71.96142,-156.2882,1009.2,-21.8,-999.0,yes,yes,no,300534061806080,IP,USIABP,UTQ_2022,North
2022-04-06T07:00:02Z,2022,7,0,96.2917,96.2917,71.96181,-156.2969,1009.9,-22.67,-999.0,yes,yes,no,300534061806080,IP,USIABP,UTQ_2022,North
2022-04-06T18:00:00Z,2022,18,0,96.75,96.75,71.96512,-156.3531,1014.6,-20.03,-999.0,yes,yes,no,300534061806080,IP,USIABP,UTQ_2022,North
2022-04-06T19:59:57Z,2022,20,0,96.8333,96.8333,71.96626,-156.3646,1014.9,-17.62,-999.0,yes,yes,no,300534061806080,IP,USIABP,UTQ_2022,North
2022-04-06T21:00:00Z,2022,21,0,96.875,96.875,71.96581,-156.3734,1015.2,-16.89,-999.0,yes,yes,no,300534061806080,IP,USIABP,UTQ_2022,North
2022-04-06T22:00:02Z,2022,22,0,96.9167,96.9167,71.96541,-156.3826,1015.2,-16.35,-999.0,yes,yes,no,300534061806080,IP,USIABP,UTQ_2022,North
2022-04-06T22:59:57Z,2022,23,0,96.9583,96.9583,71.96532,-156.3921,1015.3,-16.18,-999.0,yes,yes,no,300534061806080,IP,USIABP,UTQ_2022,North
2022-04-07T00:00:00Z,2022,0,0,97.0,97.0,71.96573,-156.4019,1015.3,-16.51,-999.0,yes,yes,no,300534061806080,IP,USIABP,UTQ_2022,North
2022-04-07T01:00:02Z,2022,1,0,97.0417,97.0417,71.96636,-156.4126,1015.2,-16.93,-999.0,yes,yes,no,300534061806080,IP,USIABP,UTQ_2022,North
2022-04-07T01:59:57Z,2022,2,0,97.0833,97.0833,71.96681,-156.4247,1015.0,-17.56,-999.0,yes,yes,no,300534061806080,IP,USIABP,UTQ_2022,North
2022-04-07T03:00:00Z,2022,3,0,97.125,97.125,71.96696,-156.438,1014.9,-18.14,-999.0,yes,yes,no,300534061806080,IP,USIABP,UTQ_2022,North
2022-04-07T04:00:02Z,2022,4,0,97.1667,97.1667,71.96663,-156.4518,1014.9,-18.51,-999.0,yes,yes,no,300534061806080,IP,USIABP,UTQ_2022,North
2022-04-07T04:59:57Z,2022,5,0,97.2083,97.2083,71.96624,-156.4654,1014.3,-19.09,-999.0,yes,yes,no,300534061806080,IP,USIABP,UTQ_2022,North
2022-04-07T06:00:00Z,2022,6,0,97.25,97.25,71.96516,-156.48,1014.1,-19.59,-999.0,yes,yes,no,300534061806080,IP,USIABP,UTQ_2022,North
2022-04-07T07:00:02Z,2022,7,0,97.2917,97.2917,71.96384,-156.4959,1013.7,-19.69,-999.0,yes,yes,no,300534061806080,IP,USIABP,UTQ_2022,North
2022-04-07T07:59:57Z,2022,8,0,97.3333,97.3333,71.96201,-156.5099,1013.8,-19.2,-999.0,yes,yes,no,300534061806080,IP,USIABP,UTQ_2022,North
2022-04-07T09:00:00Z,2022,9,0,97.375,97.375,71.95984,-156.5248,1014.0,-18.83,-999.0,yes,yes,no,300534061806080,IP,USIABP,UTQ_2022,North
2022-04-07T10:00:02Z,2022,10,0,97.4167,97.4167,71.95707,-156.5367,1013.6,-18.58,-999.0,yes,yes,no,300534061806080,IP,USIABP,UTQ_2022,North
2022-04-07T10:59:57Z,2022,11,0,97.4583,97.4583,71.9537,-156.5481,1013.0,-18.72,-999.0,yes,yes,no,300534061806080,IP,USIABP,UTQ_2022,North
2022-04-07T12:00:00Z,2022,12,0,97.5,97.5,71.95112,-156.5592,1012.3,-18.75,-999.0,yes,yes,no,300534061806080,IP,USIABP,UTQ_2022,North
2022-04-07T13:00:02Z,2022,13,0,97.5417,97.5417,71.94891,-156.5698,1011.9,-18.69,-999.0,yes,yes,no,300534061806080,IP,USIABP,UTQ_2022,North
2022-04-07T13:59:57Z,2022,14,0,97.5833,97.5833,71.9478,-156.5786,1011.7,-18.46,-999.0,yes,yes,no,300534061806080,IP,USIABP,UTQ_2022,North
2022-04-07T15:00:00Z,2022,15,0,97.625,97.625,71.94762,-156.588,1011.4,-18.19,-999.0,yes,yes,no,300534061806080,IP,USIABP,UTQ_2022,North
2022-04-07T16:00:02Z,2022,16,0,97.6667,97.6667,71.94835,-156.5947,1011.6,-17.89,-999.0,yes,yes,no,300534061806080,IP,USIABP,UTQ_2022,North
2022-04-07T16:59:57Z,2022,17,0,97.7083,97.7083,71.94942,-156.5985,1011.8,-17.98,-999.0,yes,yes,no,300534061806080,IP,USIABP,UTQ_2022,North
2022-04-07T18:00:00Z,2022,18,0,97.75,97.75,71.95016,-156.6007,1011.8,-16.1,-999.0,yes,yes,no,300534061806080,IP,USIABP,UTQ_2022,North
2022-04-07T19:00:02Z,2022,19,0,97.7917,97.7917,71.95068,-156.603,1011.8,-14.53,-999.0,yes,yes,no,300534061806080,IP,USIABP,UTQ_2022,North
2022-04-07T19:59:57Z,2022,20,0,97.8333,97.8333,71.95144,-156.605,1012.3,-13.18,-999.0,yes,yes,no,300534061806080,IP,USIABP,UTQ_2022,North
2022-04-07T21:00:00Z,2022,21,0,97.875,97.875,71.95251,-156.6071,1013.1,-12.23,-999.0,yes,yes,no,300534061806080,IP,USIABP,UTQ_2022,North
2022-04-07T22:00:02Z,2022,22,0,97.9167,97.9167,71.95348,-156.6092,1013.5,-10.5,-999.0,yes,yes,no,300534061806080,IP,USIABP,UTQ_2022,North
2022-04-07T22:59:57Z,2022,23,0,97.9583,97.9583,71.95374,-156.6093,1013.4,-10.39,-999.0,yes,yes,no,300534061806080,IP,USIABP,UTQ_2022,North
2022-04-08T00:00:00Z,2022,0,0,98.0,98.0,71.95331,-156.61,1013.2,-9.38,-999.0,yes,yes,no,300534061806080,IP,USIABP,UTQ_2022,North
2022-04-08T01:00:02Z,2022,1,0,98.0417,98.0417,71.9531,-156.6122,1013.2,-10.9,-999.0,yes,yes,no,300534061806080,IP,USIABP,UTQ_2022,North
2022-04-08T01:59:57Z,2022,2,0,98.0833,98.0833,71.95225,-156.6185,1012.9,-9.46,-999.0,yes,yes,no,300534061806080,IP,USIABP,UTQ_2022,North
2022-04-08T03:00:00Z,2022,3,0,98.125,98.125,71.95087,-156.6275,1012.9,-9.6,-999.0,yes,yes,no,300534061806080,IP,USIABP,UTQ_2022,North
2022-04-08T04:00:02Z,2022,4,0,98.1667,98.1667,71.94954,-156.6363,1012.5,-10.68,-999.0,yes,yes,no,300534061806080,IP,USIABP,UTQ_2022,North
2022-04-08T04:59:57Z,2022,5,0,98.2083,98.2083,71.94854,-156.6472,1012.0,-12.42,-999.0,yes,yes,no,300534061806080,IP,USIABP,UTQ_2022,North
2022-04-08T06:00:00Z,2022,6,0,98.25,98.25,71.94805,-156.6584,1011.5,-14.18,-999.0,yes,yes,no,300534061806080,IP,USIABP,UTQ_2022,North
2022-04-08T07:00:02Z,2022,7,0,98.2917,98.2917,71.94742,-156.6729,1011.2,-14.66,-999.0,yes,yes,no,300534061806080,IP,USIABP,UTQ_2022,North
2022-04-08T07:59:57Z,2022,8,0,98.3333,98.3333,71.94721,-156.6882,1011.0,-15.23,-999.0,yes,yes,no,300534061806080,IP,USIABP,UTQ_2022,North
2022-04-08T09:00:00Z,2022,9,0,98.375,98.375,71.9473,-156.7032,1010.8,-15.55,-999.0,yes,yes,no,300534061806080,IP,USIABP,UTQ_2022,North
2022-04-08T10:00:02Z,2022,10,0,98.4167,98.4167,71.94763,-156.7142,1011.0,-16.04,-999.0,yes,yes,no,300534061806080,IP,USIABP,UTQ_2022,North
2022-04-08T10:59:57Z,2022,11,0,98.4583,98.4583,71.94807,-156.7235,1010.9,-16.46,-999.0,yes,yes,no,300534061806080,IP,USIABP,UTQ_2022,North
2022-04-08T12:00:00Z,2022,12,0,98.5,98.5,71.94864,-156.7322,1011.0,-16.63,-999.0,yes,yes,no,300534061806080,IP,USIABP,UTQ_2022,North
2022-04-08T13:00:02Z,2022,13,0,98.5417,98.5417,71.94946,-156.7391,1011.1,-16.78,-999.0,yes,yes,no,300534061806080,IP,USIABP,UTQ_2022,North
2022-04-08T13:59:57Z,2022,14,0,98.5833,98.5833,71.95072,-156.7438,1011.8,-16.68,-999.0,yes,yes,no,300534061806080,IP,USIABP,UTQ_2022,North
2022-04-08T15:00:00Z,2022,15,0,98.625,98.625,71.9523,-156.7473,1012.3,-16.45,-999.0,yes,yes,no,300534061806080,IP,USIABP,UTQ_2022,North
2022-04-08T16:00:02Z,2022,16,0,98.6667,98.6667,71.95388,-156.7479,1013.1,-16.36,-999.0,yes,yes,no,300534061806080,IP,USIABP,UTQ_2022,North
2022-04-08T16:59:57Z,2022,17,0,98.7083,98.7083,71.95554,-156.746,1013.7,-16.33,-999.0,yes,yes,no,300534061806080,IP,USIABP,UTQ_2022,North
2022-04-08T18:00:00Z,2022,18,0,98.75,98.75,71.95705,-156.7391,1014.5,-15.67,-999.0,yes,yes,no,300534061806080,IP,USIABP,UTQ_2022,North
2022-04-08T19:00:02Z,2022,19,0,98.7917,98.7917,71.95786,-156.7278,1015.4,-15.03,-999.0,yes,yes,no,300534061806080,IP,USIABP,UTQ_2022,North
2022-04-08T19:59:57Z,2022,20,0,98.8333,98.8333,71.95782,-156.7137,1016.7,-14.79,-999.0,yes,yes,no,300534061806080,IP,USIABP,UTQ_2022,North
2022-04-08T21:00:00Z,2022,21,0,98.875,98.875,71.95768,-156.6979,1018.0,-14.01,-999.0,yes,yes,no,300534061806080,IP,USIABP,UTQ_2022,North
2022-04-08T22:00:02Z,2022,22,0,98.9167,98.9167,71.95705,-156.6802,1018.9,-13.09,-999.0,yes,yes,no,300534061806080,IP,USIABP,UTQ_2022,North
2022-04-08T22:59:57Z,2022,23,0,98.9583,98.9583,71.95655,-156.6615,1019.9,-13.29,-999.0,yes,yes,no,300534061806080,IP,USIABP,UTQ_2022,North
2022-04-09T00:00:00Z,2022,0,0,99.0,99.0,71.95686,-156.6426,1020.8,-13.22,-999.0,yes,yes,no,300534061806080,IP,USIABP,UTQ_2022,North
2022-04-09T01:00:02Z,2022,1,0,99.0417,99.0417,71.95754,-156.6236,1021.8,-13.72,-999.0,yes,yes,no,300534061806080,IP,USIABP,UTQ_2022,North
2022-04-09T01:59:57Z,2022,2,0,99.0833,99.0833,71.95876,-156.6052,1022.9,-14.14,-999.0,yes,yes,no,300534061806080,IP,USIABP,UTQ_2022,North
2022-04-09T03:00:00Z,2022,3,0,99.125,99.125,71.96004,-156.5879,1023.7,-14.9,-999.0,yes,yes,no,300534061806080,IP,USIABP,UTQ_2022,North
2022-04-09T04:00:02Z,2022,4,0,99.1667,99.1667,71.96071,-156.573,1024.4,-15.53,-999.0,yes,yes,no,300534061806080,IP,USIABP,UTQ_2022,North
2022-04-09T04:59:57Z,2022,5,0,99.2083,99.2083,71.9612,-156.5611,1025.3,-16.3,-999.0,yes,yes,no,300534061806080,IP,USIABP,UTQ_2022,North
2022-04-09T06:00:00Z,2022,6,0,99.25,99.25,71.96208,-156.5516,1025.9,-17.03,-999.0,yes,yes,no,300534061806080,IP,USIABP,UTQ_2022,North
2022-04-09T07:00:02Z,2022,7,0,99.2917,99.2917,71.96288,-156.5433,1026.6,-17.65,-999.0,yes,yes,no,300534061806080,IP,USIABP,UTQ_2022,North
2022-04-09T07:59:57Z,2022,8,0,99.3333,99.3333,71.96387,-156.5364,1027.2,-18.06,-999.0,yes,yes,no,300534061806080,IP,USIABP,UTQ_2022,North
2022-04-09T09:00:00Z,2022,9,0,99.375,99.375,71.96481,-156.531,1028.0,-18.53,-999.0,yes,yes,no,300534061806080,IP,USIABP,UTQ_2022,North
2022-04-09T10:00:02Z,2022,10,0,99.4167,99.4167,71.96577,-156.5252,1028.7,-19.03,-999.0,yes,yes,no,300534061806080,IP,USIABP,UTQ_2022,North
2022-04-09T10:59:57Z,2022,11,0,99.4583,99.4583,71.96672,-156.5198,1029.5,-19.79,-999.0,yes,yes,no,300534061806080,IP,USIABP,UTQ_2022,North
2022-04-09T13:00:02Z,2022,13,0,99.5417,99.5417,71.96853,-156.5105,1030.3,-21.26,-999.0,yes,yes,no,300534061806080,IP,USIABP,UTQ_2022,North
2022-04-09T13:59:57Z,2022,14,0,99.5833,99.5833,71.96931,-156.5076,1030.6,-21.89,-999.0,yes,yes,no,300534061806080,IP,USIABP,UTQ_2022,North
2022-04-09T15:00:00Z,2022,15,0,99.625,99.625,71.97019,-156.5056,1030.8,-22.13,-999.0,yes,yes,no,300534061806080,IP,USIABP,UTQ_2022,North
2022-04-09T16:00:02Z,2022,16,0,99.6667,99.6667,71.97094,-156.5036,1031.0,-22.1,-999.0,yes,yes,no,300534061806080,IP,USIABP,UTQ_2022,North
2022-04-09T16:59:57Z,2022,17,0,99.7083,99.7083,71.97172,-156.5022,1031.2,-21.52,-999.0,yes,yes,no,300534061806080,IP,USIABP,UTQ_2022,North
2022-04-09T18:00:00Z,2022,18,0,99.75,99.75,71.97256,-156.501,1031.2,-20.66,-999.0,yes,yes,no,300534061806080,IP,USIABP,UTQ_2022,North
2022-04-09T19:00:02Z,2022,19,0,99.7917,99.7917,71.97343,-156.4999,1031.4,-19.61,-999.0,yes,yes,no,300534061806080,IP,USIABP,UTQ_2022,North
2022-04-09T19:59:57Z,2022,20,0,99.8333,99.8333,71.97452,-156.4988,1031.6,-18.42,-999.0,yes,yes,no,300534061806080,IP,USIABP,UTQ_2022,North
2022-04-09T21:00:00Z,2022,21,0,99.875,99.875,71.97572,-156.4978,1031.7,-17.09,-999.0,yes,yes,no,300534061806080,IP,USIABP,UTQ_2022,North
2022-04-09T22:00:02Z,2022,22,0,99.9167,99.9167,71.97702,-156.4974,1031.8,-15.55,-999.0,yes,yes,no,300534061806080,IP,USIABP,UTQ_2022,North
2022-04-09T22:59:57Z,2022,23,0,99.9583,99.9583,71.97849,-156.4969,1032.0,-13.89,-999.0,yes,yes,no,300534061806080,IP,USIABP,UTQ_2022,North
2022-04-10T00:00:00Z,2022,0,0,100.0,100.0,71.97971,-156.4969,1031.8,-12.54,-999.0,yes,yes,no,300534061806080,IP,USIABP,UTQ_2022,North
2022-04-10T01:00:02Z,2022,1,0,100.0417,100.0417,71.98071,-156.4979,1031.7,-11.81,-999.0,yes,yes,no,300534061806080,IP,USIABP,UTQ_2022,North
2022-04-10T01:59:57Z,2022,2,0,100.0833,100.0833,71.98174,-156.4988,1031.8,-12.11,-999.0,yes,yes,no,300534061806080,IP,USIABP,UTQ_2022,North
2022-04-10T03:00:00Z,2022,3,0,100.125,100.125,71.98249,-156.5004,1031.9,-14.09,-999.0,yes,yes,no,300534061806080,IP,USIABP,UTQ_2022,North
2022-04-10T04:00:02Z,2022,4,0,100.1667,100.1667,71.98324,-156.5023,1031.9,-16.14,-999.0,yes,yes,no,300534061806080,IP,USIABP,UTQ_2022,North
2022-04-10T04:59:57Z,2022,5,0,100.2083,100.2083,71.98396,-156.5046,1032.2,-17.44,-999.0,yes,yes,no,300534061806080,IP,USIABP,UTQ_2022,North
2022-04-10T06:00:00Z,2022,6,0,100.25,100.25,71.98482,-156.5067,1032.4,-18.83,-999.0,yes,yes,no,300534061806080,IP,USIABP,UTQ_2022,North
2022-04-10T07:00:02Z,2022,7,0,100.2917,100.2917,71.98558,-156.5082,1032.5,-19.94,-999.0,yes,yes,no,300534061806080,IP,USIABP,UTQ_2022,North
2022-04-10T07:59:57Z,2022,8,0,100.3333,100.3333,71.98642,-156.5099,1032.8,-20.68,-999.0,yes,yes,no,300534061806080,IP,USIABP,UTQ_2022,North
2022-04-10T09:00:00Z,2022,9,0,100.375,100.375,71.98726,-156.5115,1033.4,-21.08,-999.0,yes,yes,no,300534061806080,IP,USIABP,UTQ_2022,North
2022-04-10T10:00:02Z,2022,10,0,100.4167,100.4167,71.98792,-156.5133,1033.9,-21.43,-999.0,yes,yes,no,300534061806080,IP,USIABP,UTQ_2022,North
2022-04-10T10:59:57Z,2022,11,0,100.4583,100.4583,71.98841,-156.5152,1034.0,-21.58,-999.0,yes,yes,no,300534061806080,IP,USIABP,UTQ_2022,North
2022-04-10T12:00:00Z,2022,12,0,100.5,100.5,71.98886,-156.5173,1034.1,-21.76,-999.0,yes,yes,no,300534061806080,IP,USIABP,UTQ_2022,North
2022-04-10T13:00:02Z,2022,13,0,100.5417,100.5417,71.98917,-156.5202,1034.3,-21.96,-999.0,yes,yes,no,300534061806080,IP,USIABP,UTQ_2022,North
2022-04-10T13:59:57Z,2022,14,0,100.5833,100.5833,71.98947,-156.5235,1034.6,-21.99,-999.0,yes,yes,no,300534061806080,IP,USIABP,UTQ_2022,North
2022-04-10T15:00:00Z,2022,15,0,100.625,100.625,71.98993,-156.5273,1035.0,-21.99,-999.0,yes,yes,no,300534061806080,IP,USIABP,UTQ_2022,North
2022-04-10T16:00:02Z,2022,16,0,100.6667,100.6667,71.99039,-156.5319,1035.3,-21.89,-999.0,yes,yes,no,300534061806080,IP,USIABP,UTQ_2022,North
2022-04-10T16:59:57Z,2022,17,0,100.7083,100.7083,71.99106,-156.5369,1035.7,-21.39,-999.0,yes,yes,no,300534061806080,IP,USIABP,UTQ_2022,North
2022-04-10T18:00:00Z,2022,18,0,100.75,100.75,71.99191,-156.5428,1035.7,-20.72,-999.0,yes,yes,no,300534061806080,IP,USIABP,UTQ_2022,North
2022-04-10T19:00:02Z,2022,19,0,100.7917,100.7917,71.99303,-156.5492,1035.9,-19.84,-999.0,yes,yes,no,300534061806080,IP,USIABP,UTQ_2022,North
2022-04-10T19:59:57Z,2022,20,0,100.8333,100.8333,71.99444,-156.5564,1036.3,-18.84,-999.0,yes,yes,no,300534061806080,IP,USIABP,UTQ_2022,North
2022-04-10T21:00:00Z,2022,21,0,100.875,100.875,71.99615,-156.5638,1036.2,-17.57,-999.0,yes,yes,no,300534061806080,IP,USIABP,UTQ_2022,North
2022-04-10T22:00:02Z,2022,22,0,100.9167,100.9167,71.99838,-156.5715,1036.8,-16.78,-999.0,yes,yes,no,300534061806080,IP,USIABP,UTQ_2022,North
2022-04-10T22:59:57Z,2022,23,0,100.9583,100.9583,72.00086,-156.5801,1037.0,-15.8,-999.0,yes,yes,no,300534061806080,IP,USIABP,UTQ_2022,North
2022-04-11T00:00:00Z,2022,0,0,101.0,101.0,72.00368,-156.5884,1037.1,-14.3,-999.0,yes,yes,no,300534061806080,IP,USIABP,UTQ_2022,North
2022-04-11T01:00:02Z,2022,1,0,101.0417,101.0417,72.00703,-156.5964,1036.8,-12.12,-999.0,yes,yes,no,300534061806080,IP,USIABP,UTQ_2022,North
2022-04-11T01:59:57Z,2022,2,0,101.0833,101.0833,72.01066,-156.6039,1036.9,-14.59,-999.0,yes,yes,no,300534061806080,IP,USIABP,UTQ_2022,North
2022-04-11T03:00:00Z,2022,3,0,101.125,101.125,72.01417,-156.6107,1036.2,-15.09,-999.0,yes,yes,no,300534061806080,IP,USIABP,UTQ_2022,North
2022-04-11T04:00:02Z,2022,4,0,101.1667,101.1667,72.01785,-156.6172,1035.9,-15.28,-999.0,yes,yes,no,300534061806080,IP,USIABP,UTQ_2022,North
2022-04-11T04:59:57Z,2022,5,0,101.2083,101.2083,72.02174,-156.6226,1035.5,-15.3,-999.0,yes,yes,no,300534061806080,IP,USIABP,UTQ_2022,North
2022-04-11T06:00:00Z,2022,6,0,101.25,101.25,72.0257,-156.6264,1035.5,-15.48,-999.0,yes,yes,no,300534061806080,IP,USIABP,UTQ_2022,North
2022-04-11T07:00:02Z,2022,7,0,101.2917,101.2917,72.02975,-156.6298,1035.2,-15.41,-999.0,yes,yes,no,300534061806080,IP,USIABP,UTQ_2022,North
2022-04-11T07:59:57Z,2022,8,0,101.3333,101.3333,72.03394,-156.6323,1035.0,-14.93,-999.0,yes,yes,no,300534061806080,IP,USIABP,UTQ_2022,North
2022-04-11T09:00:00Z,2022,9,0,101.375,101.375,72.03794,-156.6333,1034.9,-14.24,-999.0,yes,yes,no,300534061806080,IP,USIABP,UTQ_2022,North
2022-04-11T10:00:02Z,2022,10,0,101.4167,101.4167,72.04166,-156.6336,1034.5,-13.71,-999.0,yes,yes,no,300534061806080,IP,USIABP,UTQ_2022,North
2022-04-11T10:59:57Z,2022,11,0,101.4583,101.4583,72.04545,-156.6318,1034.2,-13.18,-999.0,yes,yes,no,300534061806080,IP,USIABP,UTQ_2022,North
2022-04-11T12:00:00Z,2022,12,0,101.5,101.5,72.04868,-156.6311,1034.1,-12.63,-999.0,yes,yes,no,300534061806080,IP,USIABP,UTQ_2022,North
2022-04-11T13:00:02Z,2022,13,0,101.5417,101.5417,72.0516,-156.6276,1033.7,-12.02,-999.0,yes,yes,no,300534061806080,IP,USIABP,UTQ_2022,North
2022-04-11T13:59:57Z,2022,14,0,101.5833,101.5833,72.05451,-156.6222,1033.4,-11.34,-999.0,yes,yes,no,300534061806080,IP,USIABP,UTQ_2022,North
2022-04-11T15:00:00Z,2022,15,0,101.625,101.625,72.0577,-156.6137,1033.4,-10.35,-999.0,yes,yes,no,300534061806080,IP,USIABP,UTQ_2022,North
2022-04-11T16:00:02Z,2022,16,0,101.6667,101.6667,72.06071,-156.6046,1033.5,-9.25,-999.0,yes,yes,no,300534061806080,IP,USIABP,UTQ_2022,North
2022-04-11T16:59:57Z,2022,17,0,101.7083,101.7083,72.06326,-156.5955,1033.3,-7.91,-999.0,yes,yes,no,300534061806080,IP,USIABP,UTQ_2022,North
2022-04-11T18:00:00Z,2022,18,0,101.75,101.75,72.06567,-156.5867,1033.1,-6.95,-999.0,yes,yes,no,300534061806080,IP,USIABP,UTQ_2022,North
2022-04-11T19:00:02Z,2022,19,0,101.7917,101.7917,72.068,-156.5777,1033.1,-6.27,-999.0,yes,yes,no,300534061806080,IP,USIABP,UTQ_2022,North
2022-04-11T19:59:57Z,2022,20,0,101.8333,101.8333,72.07032,-156.5692,1032.8,-6.38,-999.0,yes,yes,no,300534061806080,IP,USIABP,UTQ_2022,North
2022-04-11T21:00:00Z,2022,21,0,101.875,101.875,72.07207,-156.5606,1032.7,-5.96,-999.0,yes,yes,no,300534061806080,IP,USIABP,UTQ_2022,North
2022-04-11T22:00:02Z,2022,22,0,101.9167,101.9167,72.07441,-156.5506,1032.5,-5.19,-999.0,yes,yes,no,300534061806080,IP,USIABP,UTQ_2022,North
2022-04-11T22:59:57Z,2022,23,0,101.9583,101.9583,72.07655,-156.5401,1032.4,-4.49,-999.0,yes,yes,no,300534061806080,IP,USIABP,UTQ_2022,North
2022-04-12T00:00:00Z,2022,0,0,102.0,102.0,72.07837,-156.5267,1032.2,-3.81,-999.0,yes,yes,no,300534061806080,IP,USIABP,UTQ_2022,North
2022-04-12T01:00:02Z,2022,1,0,102.0417,102.0417,72.07957,-156.5125,1032.1,-4.04,-999.0,yes,yes,no,300534061806080,IP,USIABP,UTQ_2022,North
2022-04-12T01:59:57Z,2022,2,0,102.0833,102.0833,72.07979,-156.4979,1032.2,-4.5,-999.0,yes,yes,no,300534061806080,IP,USIABP,UTQ_2022,North
2022-04-12T03:00:00Z,2022,3,0,102.125,102.125,72.07913,-156.485,1032.5,-5.42,-999.0,yes,yes,no,300534061806080,IP,USIABP,UTQ_2022,North
2022-04-12T04:00:02Z,2022,4,0,102.1667,102.1667,72.07674,-156.4745,1032.5,-5.94,-999.0,yes,yes,no,300534061806080,IP,USIABP,UTQ_2022,North
2022-04-12T04:59:57Z,2022,5,0,102.2083,102.2083,72.07267,-156.4681,1033.1,-7.78,-999.0,yes,yes,no,300534061806080,IP,USIABP,UTQ_2022,North
2022-04-12T06:00:00Z,2022,6,0,102.25,102.25,72.06837,-156.4653,1033.5,-9.71,-999.0,yes,yes,no,300534061806080,IP,USIABP,UTQ_2022,North
2022-04-12T07:00:02Z,2022,7,0,102.2917,102.2917,72.06369,-156.4662,1034.3,-11.15,-999.0,yes,yes,no,300534061806080,IP,USIABP,UTQ_2022,North
2022-04-12T07:59:57Z,2022,8,0,102.3333,102.3333,72.06037,-156.4683,1034.9,-12.65,-999.0,yes,yes,no,300534061806080,IP,USIABP,UTQ_2022,North
2022-04-12T09:00:00Z,2022,9,0,102.375,102.375,72.05783,-156.4716,1035.2,-13.54,-999.0,yes,yes,no,300534061806080,IP,USIABP,UTQ_2022,North
2022-04-12T10:00:02Z,2022,10,0,102.4167,102.4167,72.05587,-156.4757,1035.6,-14.48,-999.0,yes,yes,no,300534061806080,IP,USIABP,UTQ_2022,North
2022-04-12T10:59:57Z,2022,11,0,102.4583,102.4583,72.0544,-156.4797,1035.7,-15.44,-999.0,yes,yes,no,300534061806080,IP,USIABP,UTQ_2022,North
2022-04-12T12:00:00Z,2022,12,0,102.5,102.5,72.05325,-156.4812,1035.8,-16.27,-999.0,yes,yes,no,300534061806080,IP,USIABP,UTQ_2022,North
2022-04-12T13:00:02Z,2022,13,0,102.5417,102.5417,72.05201,-156.4816,1036.0,-17.53,-999.0,yes,yes,no,300534061806080,IP,USIABP,UTQ_2022,North
2022-04-12T13:59:57Z,2022,14,0,102.5833,102.5833,72.05079,-156.4809,1036.1,-18.42,-999.0,yes,yes,no,300534061806080,IP,USIABP,UTQ_2022,North
2022-04-12T15:00:00Z,2022,15,0,102.625,102.625,72.04968,-156.4796,1036.2,-19.02,-999.0,yes,yes,no,300534061806080,IP,USIABP,UTQ_2022,North
2022-04-12T16:00:02Z,2022,16,0,102.6667,102.6667,72.04875,-156.4774,1036.3,-19.24,-999.0,yes,yes,no,300534061806080,IP,USIABP,UTQ_2022,North
2022-04-12T16:59:57Z,2022,17,0,102.7083,102.7083,72.04805,-156.4739,1036.5,-19.54,-999.0,yes,yes,no,300534061806080,IP,USIABP,UTQ_2022,North
2022-04-12T18:00:00Z,2022,18,0,102.75,102.75,72.04736,-156.4698,1036.5,-19.38,-999.0,yes,yes,no,300534061806080,IP,USIABP,UTQ_2022,North
2022-04-12T19:00:02Z,2022,19,0,102.7917,102.7917,72.0466,-156.465,1036.7,-18.9,-999.0,yes,yes,no,300534061806080,IP,USIABP,UTQ_2022,North
2022-04-12T19:59:57Z,2022,20,0,102.8333,102.8333,72.04584,-156.4592,1036.8,-18.22,-999.0,yes,yes,no,300534061806080,IP,USIABP,UTQ_2022,North
2022-04-12T21:00:00Z,2022,21,0,102.875,102.875,72.04517,-156.4518,1037.0,-17.35,-999.0,yes,yes,no,300534061806080,IP,USIABP,UTQ_2022,North
2022-04-12T22:00:02Z,2022,22,0,102.9167,102.9167,72.04412,-156.4442,1037.1,-15.99,-999.0,yes,yes,no,300534061806080,IP,USIABP,UTQ_2022,North
2022-04-12T22:59:57Z,2022,23,0,102.9583,102.9583,72.04285,-156.4355,1037.1,-14.19,-999.0,yes,yes,no,300534061806080,IP,USIABP,UTQ_2022,North
2022-04-13T00:00:00Z,2022,0,0,103.0,103.0,72.04074,-156.4263,1037.1,-12.47,-999.0,yes,yes,no,300534061806080,IP,USIABP,UTQ_2022,North
2022-04-13T01:00:02Z,2022,1,0,103.0417,103.0417,72.03863,-156.4178,1037.1,-11.34,-999.0,yes,yes,no,300534061806080,IP,USIABP,UTQ_2022,North
2022-04-13T01:59:57Z,2022,2,0,103.0833,103.0833,72.03662,-156.4097,1037.3,-11.14,-999.0,yes,yes,no,300534061806080,IP,USIABP,UTQ_2022,North
2022-04-13T03:00:00Z,2022,3,0,103.125,103.125,72.03455,-156.403,1037.5,-11.82,-999.0,yes,yes,no,300534061806080,IP,USIABP,UTQ_2022,North
2022-04-13T04:00:02Z,2022,4,0,103.1667,103.1667,72.03286,-156.3974,1037.8,-13.37,-999.0,yes,yes,no,300534061806080,IP,USIABP,UTQ_2022,North
2022-04-13T04:59:57Z,2022,5,0,103.2083,103.2083,72.03161,-156.3939,1038.1,-16.06,-999.0,yes,yes,no,300534061806080,IP,USIABP,UTQ_2022,North
2022-04-13T06:00:00Z,2022,6,0,103.25,103.25,72.03105,-156.3917,1038.3,-17.64,-999.0,yes,yes,no,300534061806080,IP,USIABP,UTQ_2022,North
2022-04-13T07:59:57Z,2022,8,0,103.3333,103.3333,72.0305,-156.3914,1038.9,-19.66,-999.0,yes,yes,no,300534061806080,IP,USIABP,UTQ_2022,North
2022-04-13T09:00:00Z,2022,9,0,103.375,103.375,72.03039,-156.3916,1039.2,-20.09,-999.0,yes,yes,no,300534061806080,IP,USIABP,UTQ_2022,North
2022-04-13T10:00:02Z,2022,10,0,103.4167,103.4167,72.03035,-156.3916,1039.4,-20.51,-999.0,yes,yes,no,300534061806080,IP,USIABP,UTQ_2022,North
2022-04-13T10:59:57Z,2022,11,0,103.4583,103.4583,72.03036,-156.3919,1039.6,-20.96,-999.0,yes,yes,no,300534061806080,IP,USIABP,UTQ_2022,North
2022-04-13T12:00:00Z,2022,12,0,103.5,103.5,72.03035,-156.3917,1039.9,-21.4,-999.0,yes,yes,no,300534061806080,IP,USIABP,UTQ_2022,North
2022-04-13T13:00:02Z,2022,13,0,103.5417,103.5417,72.03024,-156.392,1040.0,-21.93,-999.0,yes,yes,no,300534061806080,IP,USIABP,UTQ_2022,North
2022-04-13T13:59:57Z,2022,14,0,103.5833,103.5833,72.03006,-156.3925,1040.2,-22.2,-999.0,yes,yes,no,300534061806080,IP,USIABP,UTQ_2022,North
2022-04-13T15:00:00Z,2022,15,0,103.625,103.625,72.02962,-156.3937,1040.3,-22.46,-999.0,yes,yes,no,300534061806080,IP,USIABP,UTQ_2022,North
2022-04-13T16:00:02Z,2022,16,0,103.6667,103.6667,72.02905,-156.3952,1040.3,-22.4,-999.0,yes,yes,no,300534061806080,IP,USIABP,UTQ_2022,North
2022-04-13T16:59:57Z,2022,17,0,103.7083,103.7083,72.02843,-156.3972,1040.5,-21.78,-999.0,yes,yes,no,300534061806080,IP,USIABP,UTQ_2022,North
2022-04-13T18:00:00Z,2022,18,0,103.75,103.75,72.02747,-156.4005,1040.4,-20.86,-999.0,yes,yes,no,300534061806080,IP,USIABP,UTQ_2022,North
2022-04-13T19:00:02Z,2022,19,0,103.7917,103.7917,72.02638,-156.4056,1040.3,-19.85,-999.0,yes,yes,no,300534061806080,IP,USIABP,UTQ_2022,North
2022-04-13T19:59:57Z,2022,20,0,103.8333,103.8333,72.02516,-156.4124,1040.4,-18.73,-999.0,yes,yes,no,300534061806080,IP,USIABP,UTQ_2022,North